Location: Unspecified
(33.4688°N, 0.0000°E)
Time: 02:18:58
(UTC+00:00)

Cosmos 2230 Rocket - Visible Passes

Search period start: 04 April 2026 00:00
Search period end: 14 April 2026 00:00
Orbit: 962 x 995 km, 82.9° (Epoch: 29 March)

Date Brightness Start Highest point End Pass type
(mag) Time Alt. Az. Time Alt. Az. Time Alt. Az.
4 Apr 4.7 18:59:24 10° N 19:05:41 77° W 19:11:52 10° S visible
5 Apr 6.0 19:25:58 10° NNW 19:31:42 39° W 19:37:22 10° SSW visible
6 Apr 7.1 19:53:14 10° NW 19:57:32 20° W 20:01:49 10° SW visible
8 Apr 5.8 18:59:02 10° NNW 19:04:54 44° W 19:10:42 10° SSW visible
9 Apr 7.1 19:26:07 10° NW 19:30:46 22° W 19:35:24 10° SW visible
10 Apr 7.8 19:55:35 10° WNW 19:56:29 10° W 19:57:23 10° W visible
12 Apr 7.0 18:59:03 10° NNW 19:04:00 25° W 19:08:55 10° SW visible
13 Apr 7.9 04:57:18 10° ESE 04:59:38 12° E 05:01:58 10° ENE visible
13 Apr 7.7 19:27:27 10° WNW 19:29:45 12° W 19:32:01 10° WSW visible
